This is the latest recevied weather packets stored in our database for station/object N6RDS-8. If no packets are shown the sender has not sent any weather packets the latest 10 day(s).
| Time | Temp. | Humidity | Pressure | Rain* | Wind** | Luminosity | Snow |
|---|---|---|---|---|---|---|---|
| 1777327837 | 26.67° C | 20% | 1015.1 hPa | 0 mm | - | 557 W/m² | - |
| 1777327533 | 26.11° C | 20% | 1015.5 hPa | 0 mm | - | 569 W/m² | - |
| 1777327231 | 26.67° C | 20% | 1015.2 hPa | 0 mm | - | 581 W/m² | - |
| 1777326928 | 26.67° C | 21% | 1015.5 hPa | 0 mm | - | 594 W/m² | - |
| 1777326625 | 27.22° C | 21% | 1015.6 hPa | 0 mm | - | 605 W/m² | - |
| 1777326322 | 26.67° C | 21% | 1015.7 hPa | 0 mm | - | 616 W/m² | - |
| 1777326019 | 26.67° C | 20% | 1015.7 hPa | 0 mm | - | 626 W/m² | - |
| 1777325717 | 27.22° C | 20% | 1015.7 hPa | 0 mm | - | 636 W/m² | - |
| 1777325416 | 27.22° C | 18% | 1015.7 hPa | 0 mm | - | 646 W/m² | - |
| 1777325113 | 26.67° C | 18% | 1015.8 hPa | 0 mm | - | 656 W/m² | - |
| 1777324809 | 27.22° C | 16% | 1015.9 hPa | 0 mm | - | 665 W/m² | - |
| 1777324507 | 27.22° C | 14% | 1015.7 hPa | 0 mm | - | 674 W/m² | - |
| 1777324204 | 27.78° C | 15% | 1015.5 hPa | 0 mm | - | 681 W/m² | - |
| 1777323903 | 27.22° C | 15% | 1015.7 hPa | 0 mm | - | 690 W/m² | - |
| 1777323599 | 26.67° C | 14% | 1016 hPa | 0 mm | - | 698 W/m² | - |
| 1777323296 | 27.78° C | 14% | 1016 hPa | 0 mm | - | 705 W/m² | - |
| 1777322995 | 27.22° C | 14% | 1015.9 hPa | 0 mm | - | 711 W/m² | - |
| 1777322692 | 26.67° C | 14% | 1016 hPa | 0 mm | - | 718 W/m² | - |
| 1777322389 | 27.22° C | 16% | 1015.9 hPa | 0 mm | - | 723 W/m² | - |
| 1777322086 | 26.67° C | 18% | 1015.9 hPa | 0 mm | - | 727 W/m² | - |
| 1777321783 | 26.11° C | 19% | 1016 hPa | 0 mm | - | 734 W/m² | - |
| 1777321479 | 25.56° C | 19% | 1016 hPa | 0 mm | - | 739 W/m² | - |
| 1777321177 | 25.56° C | 19% | 1016 hPa | 0 mm | - | 742 W/m² | - |
| 1777320874 | 26.11° C | 19% | 1016.1 hPa | 0 mm | - | 746 W/m² | - |
| 1777320571 | 25.56° C | 21% | 1016 hPa | 0 mm | - | 749 W/m² | - |
* Rain latest hour (hover to see other rain measurements)
** Current wind speed in m/s (hover to see current wind gust speed)